Oconto, WI

2:29 AM CDT on September 30, 2016 (GMT -0500)
Oconto Municipal

Weather History for KOCQ - March, 2013

Change the Weather History Date:

Monday, March 18, 2013

  Actual Average Record
Temperature  
Mean Temperature 20 °F -  
Max Temperature 31 °F 37 °F 48 °F (2015)
Min Temperature 8 °F 18 °F 8 °F (2013)
Degree Days  
Heating Degree Days 46    
Moisture  
Dew Point 20 °F    
Average Humidity 87    
Maximum Humidity 97    
Minimum Humidity 67    
Precipitation  
Precipitation 0.14 in - - ()
Sea Level Pressure  
Sea Level Pressure 29.74 in    
Wind  
Wind Speed 4 mph (ESE)    
Max Wind Speed 21 mph    
Max Gust Speed 26 mph    
Visibility 7 miles    
Events      
Averages and records for this station are not official NWS values.
T = Trace of Precipitation, MM = Missing Value Source: NWS Daily Summary

Daily Weather History Graph

Daily Weather History Graph

Search for Another Location

Airport or City:

Trip Planner

Search our weather history database for the weather conditions in past years. The results will help you decide how hot, cold, wet, or windy it might be!

Date:

Astronomy

Mar. 18, 2013 Rise Set
Actual Time 6:58 AM CDT 7:01 PM CDT
Civil Twilight 6:28 AM CDT 7:31 PM CDT
Nautical Twilight 5:54 AM CDT 8:05 PM CDT
Astronomical Twilight 5:19 AM CDT 8:40 PM CDT
Moon 10:42 AM CDT (3/18) 1:15 AM CDT (3/18)
Length of Visible Light 13h 02m
Length of Day
12h 03m
Waxing Crescent, 41% of the Moon is Illuminated
Mar 18
Waxing Crescent
Mar 19
First Quarter
Mar 27
Full
Apr 2
Last Quarter
Apr 10
New

Hourly Weather History & Observations

Time (CDT) Temp. Windchill Dew Point Humidity Pressure Visibility Wind Dir Wind Speed Gust Speed Precip Events Conditions
12:15 AM 9.9 °F - 7.9 °F 92% 30.07 in 10.0 mi Calm Calm - N/A   Clear
12:35 AM 12.6 °F - 9.3 °F 87% 30.05 in 10.0 mi Calm Calm - N/A   Clear
12:55 AM 13.5 °F - 10.6 °F 88% 30.05 in 10.0 mi Calm Calm - N/A   Clear
1:15 AM 13.8 °F - 10.6 °F 87% 30.04 in 10.0 mi Calm Calm - N/A   Clear
1:35 AM 12.6 °F - 10.2 °F 90% 30.04 in 10.0 mi Calm Calm - N/A   Clear
1:55 AM 9.5 °F - 7.0 °F 90% 30.04 in 10.0 mi Calm Calm - N/A   Clear
2:15 AM 8.2 °F - 5.7 °F 89% 30.04 in 10.0 mi Calm Calm - N/A   Clear
2:35 AM 8.8 °F - 7.0 °F 92% 30.03 in 10.0 mi Calm Calm - N/A   Clear
2:55 AM 9.1 °F - 7.3 °F 92% 30.02 in 10.0 mi Calm Calm - N/A   Clear
3:15 AM 9.3 °F - 7.7 °F 93% 30.01 in 10.0 mi Calm Calm - N/A   Clear
3:35 AM 9.1 °F - 7.2 °F 92% 30.00 in 10.0 mi Calm Calm - N/A   Clear
3:55 AM 9.1 °F - 7.2 °F 92% 29.99 in 10.0 mi Calm Calm - N/A   Clear
4:15 AM 8.2 °F - 6.1 °F 91% 29.98 in 10.0 mi Calm Calm - N/A   Clear
4:35 AM 9.1 °F - 6.6 °F 89% 29.96 in 10.0 mi Calm Calm - N/A   Mostly Cloudy
4:55 AM 12.0 °F - 9.3 °F 89% 29.95 in 10.0 mi Calm Calm - N/A   Overcast
5:15 AM 21.2 °F 10.9 °F 18.3 °F 89% 29.94 in 10.0 mi ESE 9.2 mph - N/A   Overcast
5:35 AM 23.0 °F 13.9 °F 18.5 °F 83% 29.93 in 10.0 mi ESE 8.1 mph - N/A   Overcast
5:55 AM 23.5 °F 13.7 °F 18.5 °F 81% 29.93 in 10.0 mi ESE 9.2 mph - N/A   Overcast
6:15 AM 23.7 °F 15.6 °F 18.5 °F 80% 29.92 in 10.0 mi East 6.9 mph - N/A   Overcast
6:35 AM 23.7 °F 16.6 °F 18.5 °F 80% 29.90 in 10.0 mi East 5.8 mph - N/A   Overcast
6:55 AM 23.9 °F 15.0 °F 19.4 °F 83% 29.90 in 10.0 mi ESE 8.1 mph - N/A   Overcast
7:15 AM 24.8 °F 16.1 °F 20.3 °F 83% 29.90 in 10.0 mi SE 8.1 mph - N/A   Overcast
7:35 AM 24.8 °F 15.3 °F 20.7 °F 84% 29.90 in 10.0 mi ESE 9.2 mph - N/A   Overcast
7:55 AM 25.2 °F 15.7 °F 20.8 °F 84% 29.88 in 10.0 mi ESE 9.2 mph - N/A   Overcast
8:15 AM 25.5 °F 16.2 °F 21.0 °F 83% 29.86 in 10.0 mi ESE 9.2 mph - N/A   Overcast
8:35 AM 25.7 °F 16.4 °F 20.8 °F 82% 29.84 in 10.0 mi ESE 9.2 mph - N/A   Overcast
8:55 AM 26.2 °F 15.8 °F 21.0 °F 81% 29.82 in 10.0 mi ESE 11.5 mph - N/A   Overcast
9:15 AM 27.0 °F 16.7 °F 20.8 °F 78% 29.81 in 10.0 mi ESE 11.5 mph 16.1 mph N/A   Overcast
9:35 AM 27.1 °F 16.4 °F 20.7 °F 77% 29.80 in 10.0 mi ESE 12.7 mph - N/A   Overcast
9:55 AM 27.3 °F 18.4 °F 20.8 °F 77% 29.80 in 10.0 mi SE 9.2 mph - N/A   Overcast
10:15 AM 27.5 °F 19.3 °F 21.2 °F 77% 29.79 in 10.0 mi ESE 8.1 mph - N/A   Overcast
10:35 AM 28.8 °F 19.5 °F 21.2 °F 73% 29.77 in 10.0 mi SE 10.4 mph - N/A   Overcast
10:55 AM 29.8 °F 22.2 °F 21.4 °F 71% 29.75 in 10.0 mi East 8.1 mph - N/A   Overcast
11:15 AM 29.7 °F 22.0 °F 21.2 °F 71% 29.74 in 10.0 mi East 8.1 mph - N/A   Overcast
11:35 AM 29.3 °F 20.8 °F 21.4 °F 72% 29.73 in 10.0 mi ESE 9.2 mph - N/A   Scattered Clouds
11:55 AM 30.4 °F 21.5 °F 21.7 °F 70% 29.72 in 10.0 mi ESE 10.4 mph - N/A   Mostly Cloudy
12:15 PM 31.1 °F 22.4 °F 21.7 °F 68% 29.70 in 10.0 mi East 10.4 mph 17.3 mph N/A   Mostly Cloudy
12:35 PM 31.1 °F 21.9 °F 21.4 °F 67% 29.69 in 10.0 mi East 11.5 mph - N/A   Mostly Cloudy
12:55 PM 30.7 °F 22.0 °F 21.6 °F 69% 29.67 in 10.0 mi ESE 10.4 mph 17.3 mph N/A   Overcast
1:15 PM 30.0 °F 20.5 °F 22.1 °F 72% 29.66 in 3.0 mi ESE 11.5 mph - N/A   Overcast
1:35 PM 28.4 °F 19.7 °F 25.2 °F 88% 29.64 in 0.5 mi East 9.2 mph - N/A   Overcast
1:55 PM 27.3 °F 19.1 °F 25.2 °F 92% 29.62 in 0.5 mi East 8.1 mph - N/A   Overcast
2:15 PM 27.1 °F 19.7 °F 25.2 °F 92% 29.62 in 0.2 mi East 6.9 mph - 0.02 in   Overcast
2:35 PM 26.6 °F 19.1 °F 25.0 °F 94% 29.61 in 0.2 mi East 6.9 mph - 0.04 in   Overcast
2:55 PM 27.1 °F 20.7 °F 25.2 °F 92% 29.60 in 0.5 mi East 5.8 mph - 0.04 in   Overcast
3:15 PM 27.1 °F 20.7 °F 25.2 °F 92% 29.60 in 0.5 mi East 5.8 mph - N/A   Overcast
3:35 PM 27.3 °F - 25.7 °F 94% 29.59 in 0.2 mi Calm Calm - 0.01 in   Overcast
3:55 PM 27.1 °F 21.8 °F 25.5 °F 94% 29.58 in 0.5 mi ENE 4.6 mph - 0.03 in   Overcast
4:15 PM 27.1 °F 21.8 °F 25.7 °F 94% 29.57 in 0.8 mi ENE 4.6 mph - 0.01 in   Overcast
4:35 PM 27.1 °F 23.2 °F 25.7 °F 94% 29.57 in 0.5 mi ENE 3.5 mph - 0.03 in   Overcast
4:55 PM 27.0 °F - 25.7 °F 95% 29.56 in 0.5 mi Calm Calm - 0.04 in   Overcast
5:15 PM 27.1 °F - 25.7 °F 94% 29.55 in 1.0 mi Calm Calm - 0.01 in   Overcast
5:35 PM 27.1 °F - 25.5 °F 94% 29.54 in 1.5 mi Calm Calm - 0.01 in   Overcast
5:55 PM 27.1 °F - 25.7 °F 94% 29.54 in 1.8 mi Calm Calm - 0.02 in   Overcast
6:15 PM 27.0 °F - 25.3 °F 94% 29.53 in 5.0 mi Calm Calm - N/A   Overcast
6:35 PM 27.0 °F - 25.5 °F 94% 29.53 in 2.5 mi Calm Calm - N/A   Overcast
6:55 PM 26.6 °F - 25.7 °F 96% 29.52 in 2.5 mi Calm Calm - N/A   Overcast
7:15 PM 27.0 °F - 25.7 °F 95% 29.52 in 4.0 mi Calm Calm - 0.01 in   Overcast
7:35 PM 26.6 °F - 25.5 °F 96% 29.52 in 4.0 mi Calm Calm - 0.01 in   Overcast
7:55 PM 26.4 °F - 25.7 °F 97% 29.51 in 7.0 mi Calm Calm - 0.01 in   Overcast
8:15 PM 26.4 °F - 25.7 °F 97% 29.51 in 7.0 mi Calm Calm - N/A   Overcast
8:35 PM 26.6 °F - 25.7 °F 96% 29.51 in 2.5 mi Calm Calm - N/A   Overcast
8:55 PM 26.6 °F 22.6 °F 25.9 °F 97% 29.51 in 2.0 mi SW 3.5 mph - N/A   Overcast
9:15 PM 27.0 °F - 26.1 °F 96% 29.51 in 1.8 mi Calm Calm - N/A   Overcast
9:35 PM 27.0 °F - 26.1 °F 96% 29.50 in 3.0 mi Calm Calm - N/A   Overcast
9:55 PM 27.0 °F 23.0 °F 25.9 °F 96% 29.50 in 5.0 mi SW 3.5 mph - N/A   Overcast
10:15 PM 27.3 °F 17.7 °F 26.1 °F 95% 29.50 in 7.0 mi WSW 10.4 mph - N/A   Overcast
10:55 PM 24.3 °F 10.0 °F 19.4 °F 82% 29.52 in 5.0 mi West 19.6 mph 26.5 mph N/A   Overcast
11:15 PM 23.0 °F 8.0 °F 17.8 °F 80% 29.52 in 4.0 mi West 20.7 mph 26.5 mph N/A   Overcast
11:35 PM 22.1 °F 10.0 °F 17.2 °F 82% 29.52 in 5.0 mi West 12.7 mph 25.3 mph N/A   Overcast
11:55 PM 21.2 °F 9.5 °F 17.2 °F 85% 29.52 in 2.0 mi West 11.5 mph 24.2 mph N/A   Overcast